Погода в Миякитамаке

Россия / Республика Башкортостан     53°47′01″N   54°44′34″E
темп.,
°C
ветер,
м/с
пор.,
м/с
влажн.,
%
обл.,
%
осадки,
мм/ч
давл.,
гПа
погр.,
м
12 мая, ср
ср1223:00+16всв115845 0.0 102711
02:00+17вюв1158100 0.0 102711
05:00+15св1159100 0.0 102711
08:00+17в12547 0.0 1028120
11:00+22ююв124217 0.0 1028893
14:00+24ю333476 0.0 10282065
17:00+23ю3333100 0.0 10271717
20:00+20ю224897 0.0 102716
13 мая, чт
чт1323:00+16ююв114789 0.0 102811
02:00+14ююв115289 0.0 102811
05:00+13в1154100 0.0 102810
08:00+17в12515 0.0 1028121
11:00+22юв23395 0.0 10281002
14:00+24ююв343536 0.0 10271799
17:00+25ююв33315 0.0 10261865
20:00+21ююв22460 0.0 102612
14 мая, пт
пт1423:00+17ююв22514 0.0 102711
02:00+15юв22512 0.0 102711
05:00+14ю12525 0.0 102711
08:00+18ююв235193 0.0 1028121
11:00+23ю4540100 0.0 1027711
14:00+25ююз4533100 0.0 10261399
17:00+26ююз453297 0.0 10261648
20:00+22ююз224982 0.0 102511
15 мая, сб
сб1523:00+18ююз11535 0.0 102511
02:00+17ю225212 0.0 102511
05:00+16ю225215 0.0 102511
08:00+20ю235115 0.0 1025101
11:00+25ююз343764 0.0 1025726
14:00+27юз45295 0.0 10241971
17:00+28юз44285 0.0 10232231
20:00+24ююз12454 0.0 102211
16 мая, вс
вс1623:00+19ююз11495 0.0 102211
02:00+18ю11524 0.0 102211
05:00+16ю11541 0.0 102211
08:00+21ю12490 0.0 102290
11:00+26ююз35384 0.0 1021665
14:00+29юз46305 0.0 10213120
17:00+29ююз45306 0.0 10202942
20:00+24ю234910 0.0 101929